Location: Arbon
(43.0005°N, 0.7472°E)
Time: 03:18:59
(UTC+00:00)

Tiros 1 despin weight - Pass Details

Date: 31 July 2021
Orbit: 593 x 641 km, 48.2° (Epoch: 22 September)

Event Time Altitude Azimuth Distance (km) Brightness Sun altitude
Rises 20:44:55 0° 283° (WNW) 2,930 ? -13.8°
Reaches altitude 10° 20:48:21 10° 257° (WSW) 2,008 ? -14.3°
Maximum altitude 20:50:35 13° 228° (SW) 1,779 ? -14.6°
Drops below altitude 10° 20:52:48 10° 199° (SSW) 1,989 ? -14.9°
Enters shadow 20:53:40 - 190° (S) 2,170 ? -15.0°
